GW1174 Weather Reports


time (UTC)temp
F
wind
direction
speed
knots
gust
knots
rain 1hr
in
rain 24hr
in
rain mn
in
humidity
%
barometer
mb
20260901205017 70 125 6.1 7.0 0.00 0.20 0.20 41 1073.5
20260901204017 70 129 5.2 7.0 0.00 0.20 0.20 41 1074.3
20260901203017 56 0.0 0.0 0.00 0.02 0.01 84 1021.1
20260901202017 70 136 5.2 6.1 0.00 0.20 0.20 43 1075.8
20260901201017 70 140 5.2 6.1 0.00 0.20 0.20 43 1076.5
20260901200017 70 144 5.2 6.1 0.00 0.20 0.20 44 1077.3
20260901195017 70 148 5.2 6.1 0.00 0.20 0.20 45 1078.0
20260901194039 59 0.0 0.0 0.00 0.02 0.01 79 1021.0
20260901193017 69 156 5.2 6.1 0.00 0.20 0.20 46 1079.6
20260901192017 69 159 5.2 6.1 0.00 0.20 0.20 47 1080.3
20260901191017 69 163 4.3 6.1 0.00 0.20 0.20 47 1081.1
20260901190017 69 167 4.3 5.2 0.00 0.20 0.20 48 1081.9
20260901185017 68 171 4.3 5.2 0.00 0.20 0.20 49 1082.7
20260901184017 68 175 4.3 5.2 0.00 0.20 0.20 49 1083.4
20260901183017 67 179 4.3 5.2 0.00 0.20 0.20 50 1084.2
20260901182017 67 183 4.3 5.2 0.00 0.20 0.20 51 1085.0
20260901181017 66 187 4.3 5.2 0.00 0.20 0.20 51 1085.8
20260901180017 66 191 4.3 5.2 0.00 0.20 0.20 52 1086.5
20260901175017 65 195 4.3 5.2 0.00 0.20 0.20 52 1087.3
20260901174018 65 199 3.5 4.3 0.00 0.20 0.20 53 1088.1
20260901173058 64 203 3.5 4.3 0.00 0.20 0.20 54 1088.9
20260901173056 69 270 0.9 2.6 0.00 0.02 0.01 61 1020.1
20260901172016 69 225 1.7 3.5 0.00 0.02 0.01 59 1020.0
20260901171017 63 210 3.5 4.3 0.00 0.20 0.20 55 1090.4
20260901170038 69 203 2.6 5.2 0.00 0.02 0.01 59 1020.2
20260901165038 70 225 3.5 7.0 0.00 0.02 0.01 57 1020.2
20260901164018 70 225 3.5 7.8 0.00 0.02 0.01 57 1020.4
20260901163018 70 248 3.5 7.8 0.00 0.02 0.01 55 1020.4
20260901162018 71 270 5.2 10.4 0.00 0.02 0.01 55 1020.4
20260901161017 72 225 5.2 8.7 0.00 0.02 0.01 53 1020.6
20260901160018 73 248 3.5 7.0 0.00 0.02 0.01 54 1020.6
20260901155017 72 293 1.7 5.2 0.00 0.02 0.01 57 1020.5
20260901154038 71 293 0.9 5.2 0.00 0.02 0.01 59 1020.6
20260901153018 71 225 1.7 3.5 0.00 0.02 0.01 58 1020.6
20260901152018 70 293 1.7 7.0 0.00 0.02 0.01 58 1020.6
20260901151057 71 293 2.6 7.0 0.00 0.02 0.01 58 1020.6
20260901150017 72 338 2.6 7.8 0.00 0.02 0.01 56 1020.6
20260901145017 73 225 2.6 5.2 0.00 0.02 0.01 54 1020.8
20260901144017 72 270 3.5 7.0 0.00 0.02 0.01 55 1020.8
20260901143017 73 270 3.5 7.0 0.00 0.02 0.01 55 1020.9
20260901142017 72 293 4.3 8.7 0.00 0.02 0.01 57 1020.7
20260901141019 72 225 2.6 6.1 0.00 0.02 0.01 55 1020.8
20260901141017 48 276 1.7 2.6 0.00 0.20 0.20 66 1103.4
20260901140017 74 293 3.5 7.8 0.00 0.02 0.01 55 1021.0
20260901135017 47 282 1.7 2.6 0.00 0.20 0.20 67 1104.7
20260901134017 70 315 0.9 4.3 0.00 0.02 0.01 61 1020.9
20260901133017 70 315 0.9 4.3 0.00 0.02 0.01 60 1020.9
20260901132022 71 338 1.7 7.8 0.00 0.02 0.01 59 1020.9
20260901132017 44 292 1.7 1.7 0.00 0.20 0.20 69 1106.5
20260901131037 43 295 1.7 1.7 0.00 0.20 0.20 69 1107.1
20260901130017 43 298 1.7 1.7 0.00 0.20 0.20 70 1107.7
20260901125017 73 293 3.5 8.7 0.00 0.02 0.01 59 1021.4
20260901124037 41 304 1.7 1.7 0.00 0.20 0.20 71 1108.9
20260901123017 40 307 0.9 1.7 0.00 0.20 0.20 71 1109.4
20260901122017 69 293 4.3 10.4 0.00 0.02 0.01 63 1021.2
20260901121038 39 312 0.9 1.7 0.00 0.20 0.20 72 1110.5
20260901121018 70 338 1.7 8.7 0.00 0.02 0.01 62 1021.2
20260901120037 38 315 0.9 1.7 0.00 0.20 0.20 72 1111.0
20260901115017 37 317 0.9 0.9 0.00 0.20 0.20 73 1111.5
20260901114017 37 320 0.9 0.9 0.00 0.20 0.20 73 1112.0
20260901113017 70 248 4.3 8.7 0.00 0.02 0.01 63 1021.3
20260901112057 67 293 4.3 9.6 0.00 0.02 0.01 66 1021.3
20260901112017 35 325 0.9 0.9 0.00 0.20 0.20 74 1113.0
20260901111017 68 315 5.2 11.3 0.00 0.02 0.01 66 1021.4
20260901110037 69 293 4.3 10.4 0.00 0.02 0.01 66 1021.4
20260901105017 68 270 4.3 12.2 0.00 0.02 0.01 66 1021.3
20260901104017 33 333 0.9 0.9 0.00 0.20 0.20 76 1114.7
20260901103017 66 293 4.3 10.4 0.00 0.02 0.01 69 1021.2
20260901102017 32 337 0.9 0.9 0.00 0.20 0.20 76 1115.5
20260901101017 32 339 0.9 0.9 0.00 0.20 0.20 77 1115.9
20260901100017 32 341 0.9 0.9 0.00 0.20 0.20 77 1116.2
20260901095017 64 293 3.5 7.8 0.00 0.02 0.01 74 1021.3
20260901094017 31 344 0.0 0.9 0.00 0.20 0.20 77 1116.9
20260901093017 65 270 3.5 7.8 0.00 0.02 0.01 74 1021.5
20260901092037 64 293 2.6 7.8 0.00 0.02 0.01 74 1021.5
20260901091017 30 349 0.0 0.0 0.00 0.20 0.20 78 1117.8
20260901090017 30 350 0.0 0.0 0.00 0.20 0.20 78 1118.0
20260901085037 64 270 2.6 7.0 0.00 0.02 0.01 78 1021.4
20260901084017 63 293 2.6 7.0 0.00 0.02 0.01 78 1021.2
20260901083017 63 270 3.5 7.0 0.00 0.02 0.01 79 1021.3
20260901082016 30 355 0.0 0.0 0.00 0.20 0.20 79 1118.9
20260901081037 64 293 1.7 7.0 0.00 0.02 0.01 80 1021.2
20260901080017 30 356 0.0 0.0 0.00 0.20 0.20 79 1119.3
20260901075017 30 357 0.0 0.0 0.00 0.20 0.20 80 1119.4
20260901074017 30 358 0.0 0.0 0.00 0.20 0.20 80 1119.5
20260901073017 31 358 0.0 0.0 0.00 0.20 0.20 80 1119.7
20260901072037 62 293 0.9 2.6 0.00 0.02 0.01 86 1021.0
20260901071017 31 359 0.0 0.0 0.00 0.20 0.20 80 1119.8
20260901070017 31 360 0.0 0.0 0.00 0.20 0.20 80 1119.9
20260901065017 32 360 0.0 0.0 0.00 0.20 0.20 80 1119.9
20260901064037 32 360 0.0 0.0 0.00 0.20 0.20 80 1120.0
20260901063017 33 360 0.0 0.0 0.00 0.20 0.20 80 1120.0
20260901062036 58 0.0 0.9 0.00 0.02 0.01 91 1020.8
20260901061517 61 305 1.7 1.7 0.00 0.20 0.20 71 1109.1
20260901061016 58 293 0.9 3.5 0.00 0.02 0.01 92 1020.9
20260901060517 61 302 1.7 1.7 0.00 0.20 0.20 70 1108.5
20260901060016 58 293 0.9 1.7 0.00 0.02 0.01 92 1020.7
20260901055537 62 299 1.7 1.7 0.00 0.20 0.20 70 1107.9
20260901055036 57 293 0.9 2.6 0.00 0.02 0.01 92 1020.8
20260901054517 63 296 1.7 1.7 0.00 0.20 0.20 69 1107.3
20260901054037 57 293 0.9 3.5 0.00 0.02 0.01 92 1020.7
20260901053517 63 293 1.7 1.7 0.00 0.20 0.20 69 1106.7
20260901053016 57 293 0.9 2.6 0.00 0.02 0.01 92 1020.7
20260901052517 64 290 1.7 1.7 0.00 0.20 0.20 68 1106.1
20260901052016 57 0.0 2.6 0.00 0.02 0.01 91 1020.5
20260901051518 65 287 1.7 1.7 0.00 0.20 0.20 68 1105.5
20260901051016 56 0.0 2.6 0.00 0.02 0.01 91 1020.7
20260901050517 65 284 1.7 2.6 0.00 0.20 0.20 67 1104.9
20260901050016 56 270 0.9 3.5 0.00 0.02 0.01 91 1020.5
20260901045517 66 280 1.7 2.6 0.00 0.20 0.20 67 1104.2
20260901045038 56 225 2.6 4.3 0.00 0.02 0.01 91 1020.5
20260901044517 66 277 1.7 2.6 0.00 0.20 0.20 66 1103.6
20260901044016 57 225 3.5 7.0 0.00 0.02 0.01 91 1020.5
20260901043537 67 274 1.7 2.6 0.00 0.20 0.20 66 1102.9
20260901043016 57 203 4.3 8.7 0.00 0.02 0.01 91 1020.4
20260901042557 67 270 1.7 2.6 0.00 0.20 0.20 65 1102.3
20260901042017 57 203 3.5 6.1 0.00 0.02 0.01 91 1020.4
20260901041517 68 267 2.6 2.6 0.00 0.20 0.20 64 1101.6
20260901041016 57 225 2.6 4.3 0.00 0.02 0.01 91 1020.4
20260901040517 68 263 2.6 2.6 0.00 0.20 0.20 64 1100.9
20260901040016 57 203 2.6 4.3 0.00 0.04 0.01 91 1020.4
20260901035517 68 260 2.6 2.6 0.00 0.20 0.20 63 1100.2
20260901035016 57 225 2.6 5.2 0.00 0.07 0.01 91 1020.4
20260901034517 69 256 2.6 2.6 0.00 0.20 0.20 63 1099.5
20260901034016 57 203 2.6 4.3 0.00 0.08 0.01 91 1020.3
20260901033517 69 253 2.6 3.5 0.00 0.20 0.20 62 1098.8
20260901033016 57 180 2.6 6.1 0.00 0.24 0.01 91 1020.3
20260901032517 69 249 2.6 3.5 0.00 0.20 0.20 62 1098.1
20260901032056 57 203 2.6 4.3 0.00 0.24 0.01 91 1020.2
20260901031517 70 246 2.6 3.5 0.00 0.20 0.20 61 1097.4
20260901031016 57 203 1.7 3.5 0.00 0.24 0.01 91 1020.2
20260901030517 70 242 2.6 3.5 0.00 0.20 0.20 60 1096.6
20260901030016 57 158 1.7 4.3 0.00 0.24 0.01 91 1020.2
20260901025557 70 238 2.6 3.5 0.00 0.20 0.20 60 1095.9
20260901025016 57 180 2.6 5.2 0.00 0.24 0.01 91 1020.2
20260901024517 70 234 2.6 3.5 0.00 0.20 0.20 59 1095.2
20260901024036 57 180 3.5 7.0 0.00 0.24 0.01 91 1020.1
20260901023517 70 231 3.5 3.5 0.00 0.20 0.20 58 1094.4
20260901023036 57 180 3.5 5.2 0.00 0.24 0.01 91 1020.2
20260901022517 70 227 3.5 3.5 0.00 0.20 0.20 58 1093.7
20260901022016 57 180 2.6 5.2 0.00 0.24 0.01 91 1020.2
20260901021517 70 223 3.5 4.3 0.00 0.20 0.20 57 1092.9
20260901021036 57 158 2.6 5.2 0.00 0.24 0.01 91 1020.1
20260901020517 70 219 3.5 4.3 0.00 0.20 0.20 57 1092.2
20260901020016 57 158 3.5 6.1 0.00 0.24 0.01 91 1020.0
20260901015517 70 215 3.5 4.3 0.00 0.20 0.20 56 1091.4
20260901015018 57 158 2.6 5.2 0.00 0.24 0.01 90 1019.9
20260901014517 70 212 3.5 4.3 0.01 0.20 0.20 55 1090.6
20260901014018 58 158 2.6 5.2 0.00 0.24 0.01 90 1019.7
20260901013517 70 208 3.5 4.3 0.02 0.20 0.20 55 1089.9
20260901013018 57 158 2.6 5.2 0.00 0.24 0.01 90 1019.7
20260901012557 69 204 3.5 4.3 0.03 0.20 0.20 54 1089.1
20260901012037 57 158 2.6 7.0 0.00 0.24 0.01 90 1019.5
20260901011517 69 200 3.5 4.3 0.05 0.20 0.20 53 1088.3
20260901011017 57 180 3.5 5.2 0.00 0.24 0.01 90 1019.6
20260901010517 69 196 4.3 4.3 0.06 0.20 0.20 53 1087.6
20260901010037 57 158 2.6 4.3 0.00 0.24 0.01 90 1019.5
20260901005517 69 192 4.3 5.2 0.07 0.20 0.20 52 1086.8
20260901005018 58 158 1.7 3.5 0.00 0.24 0.01 90 1019.2
20260901004517 68 188 4.3 5.2 0.07 0.20 0.19 51 1086.0
20260901004016 57 158 1.7 3.5 0.00 0.24 0.01 89 1019.1
20260901003517 68 184 4.3 5.2 0.07 0.20 0.18 51 1085.2
20260901003018 57 158 1.7 3.5 0.00 0.24 0.01 89 1019.2
20260901002517 67 180 4.3 5.2 0.07 0.20 0.17 50 1084.5
20260901002018 57 203 0.9 2.6 0.00 0.24 0.01 89 1019.1
20260901001517 67 176 4.3 5.2 0.06 0.20 0.15 49 1083.7
20260901001017 57 225 1.7 4.3 0.00 0.24 0.01 88 1019.1
20260901000517 66 173 4.3 5.2 0.06 0.20 0.14 49 1082.9
20260901000017 57 225 0.9 3.5 0.00 0.24 0.01 88 1019.0
20260831235517 66 169 4.3 5.2 0.06 0.20 0.13 48 1082.1
20260831235017 58 225 0.9 2.6 0.01 0.24 0.01 88 1019.2
20260831234537 65 165 4.3 6.1 0.07 0.20 0.12 47 1081.4
20260831234017 58 225 1.7 3.5 0.01 0.24 0.01 88 1019.1
20260831233517 65 161 5.2 6.1 0.07 0.20 0.11 47 1080.6
20260831233017 58 225 3.5 5.2 0.01 0.24 0.01 88 1019.1
20260831232517 64 157 5.2 6.1 0.07 0.20 0.10 46 1079.8
20260831232017 58 225 1.7 3.5 0.01 0.24 0.01 87 1019.0
20260831231517 64 153 5.2 6.1 0.07 0.20 0.09 45 1079.0
20260831231017 59 225 0.9 2.6 0.01 0.24 0.01 88 1019.1
20260831230517 63 149 5.2 6.1 0.07 0.20 0.08 45 1078.3
20260831230037 59 225 2.6 5.2 0.01 0.24 0.01 87 1019.1
20260831225517 62 145 5.2 6.1 0.07 0.20 0.07 44 1077.5
20260831225017 59 225 4.3 7.8 0.00 0.23 0.00 87 1019.3
20260831224557 62 141 5.2 6.1 0.05 0.20 0.05 44 1076.8
20260831224017 59 248 2.6 5.2 0.01 0.23 0.00 87 1019.4
20260831223517 61 138 5.2 6.1 0.04 0.20 0.04 43 1076.0
20260831223017 59 225 3.5 7.0 0.01 0.23 0.00 86 1019.3
20260831222517 60 134 5.2 7.0 0.03 0.20 0.03 42 1075.2
20260831222017 60 225 3.5 7.0 0.01 0.23 0.00 86 1019.3
20260831221517 59 130 5.2 7.0 0.02 0.20 0.02 42 1074.5
20260831221021 60 203 2.6 6.1 0.01 0.23 0.00 86 1019.2
20260831220517 59 126 5.2 7.0 0.01 0.20 0.01 41 1073.8
20260831220017 60 248 1.7 3.5 0.01 0.23 0.23 85 1019.0
20260831215518 58 122 6.1 7.0 0.00 0.20 0.20 40 1073.0
20260831215036 61 315 1.7 3.5 0.01 0.23 0.23 84 1019.2
20260831214557 57 119 6.1 7.0 0.00 0.20 0.20 40 1072.3
20260831214036 62 293 2.6 4.3 0.00 0.22 0.22 82 1019.2
20260831213517 56 115 6.1 7.0 0.00 0.20 0.20 39 1071.6
20260831213036 62 270 2.6 7.0 0.00 0.22 0.22 80 1019.0
20260831212517 55 111 6.1 7.0 0.00 0.20 0.20 39 1070.8
20260831212016 62 270 2.6 7.0 0.00 0.22 0.22 79 1018.7
20260831211517 54 108 6.1 7.0 0.00 0.20 0.20 38 1070.1
20260831211016 62 225 4.3 9.6 0.00 0.22 0.22 79 1018.5
20260831210517 54 104 6.1 7.8 0.00 0.20 0.20 37 1069.4
20260831210016 62 225 4.3 9.6 0.00 0.22 0.22 78 1018.6
20260831205517 53 101 6.1 7.8 0.00 0.20 0.20 37 1068.7